Regional Weather Roundup
Issued by NWS

Home | Current Version | Previous Version | Text Only | Print | Product List | Glossary On
Versions: 1 2 3 4 5 6 7 8 9 10 11 12 13 14 15 16 17 18 19 20 21 22 23 24 25 26 27 28 29 30 31 32 33 34 35 36 37 38 39 40 41 42 43 44 45 46 47 48 49 50
000
ASUS43 KTOP 270708
RWRKS

WEATHER ROUNDUP FOR KANSAS
NATIONAL WEATHER SERVICE GOODLAND KS
200 AM CDT THU JUL 27 2017

NOTE:  "FAIR" INDICATES FEW OR NO CLOUDS BELOW 12,000 FEET WITH NO
SIGNIFICANT WEATHER AND/OR OBSTRUCTIONS TO VISIBILITY.

KSZ001>006-013>018-027>032-041>047-270800-
NORTHWEST KANSAS

CITY           SKY/WX    TMP DP  RH WIND       PRES   REMARKS
GOODLAND       CLOUDY    71  67  87 NE9       30.15F
HAYS           CLOUDY    74  72  93 N14       30.02F
HILL CITY      CLOUDY    74  71  91 N8        30.07F
RUSSELL        CLOUDY    74  72  93 N10       30.00S
$$

KSZ061>065-074>080-084>089-270800-
SOUTHWEST KANSAS

CITY           SKY/WX    TMP DP  RH WIND       PRES   REMARKS
DODGE CITY     CLOUDY    77  73  87 NE15      30.03S
ELKHART          N/A     73  58  59 NE6         N/A
GARDEN CITY    MOCLDY    74  70  87 NE17      30.07R
GREAT BEND     CLOUDY    76  73  91 N13       30.00S
LIBERAL        CLOUDY    77  70  79 NE10      30.05F
PRATT          CLOUDY    74  69  83 NE8       29.96F
$$

KSZ066>073-081>083-090>101-270800-
SOUTHEAST KANSAS

CITY           SKY/WX    TMP DP  RH WIND       PRES   REMARKS
CHANUTE        TSTM      79  76  90 CALM      29.96R
COFFEYVILLE    CLOUDY    83  75  77 S13G20    29.93F
HUTCHINSON     PTCLDY    77  75  93 N7        29.94S
MEDICINE LODGE   N/A     83  67  58 CALM      29.93F
NEWTON         CLOUDY    76  72  87 SE6       29.95S
WICHITA INTL   CLOUDY    83  71  67 S12       29.92F
WICHITA JABRA  CLOUDY    83  71  67 S9        29.92S
WICHITA MCCONL CLOUDY    83  70  65 SW9       29.93S
WINFIELD       CLOUDY    86  72  62 S14G22    29.94S
$$

KSZ007>012-019>026-033>040-048>060-102>105-270800-
NORTHEAST KANSAS

CITY           SKY/WX    TMP DP  RH WIND       PRES   REMARKS
CONCORDIA      CLOUDY    74  73  97 NE9       30.00S
EMPORIA        CLOUDY    76  75  97 N3        29.93F FOG
LAWRENCE       LGT RAIN  75  74  96 W12       29.94R
MANHATTAN      CLOUDY    75  74  96 NE6       29.96S
MARYSVILLE     CLOUDY    73  73 100 NE8       29.98F
OLATHE IND     TSTM      77  76  96 NW9       29.94S FOG
OLATHE EXE     RAIN      75  75 100 NE3       29.93F FOG
SALINA         PTCLDY    77  73  87 N9        29.96S
TOPEKA BILLARD CLOUDY    76  76 100 CALM      29.95S
TOPEKA FORBES  CLOUDY    77  76  96 N6        29.95F
$$



USA.gov is the U.S. government's official web portal to all federal, state and local government web resources and services.